When you browse on this site, cookies collect data to enhance your experience and personalize the content and advertising you see.
Visit our Privacy Policy to learn more. By continuing to use the site, you agree to this use of cookies and data.
  • In Hungary
  • List of Countries
  • For 7 days
  • Water Temperature
  • Weather Map
  • News
  • Weather Widgets
  • user-avatar
    Login

    Hourly Weather Novolvovsk

    Today, 17 September, Tuesday

    Time Temperature Precipitation Wind Pressure Humidity
    00:00 +9°C° 0 mm 6 mps 732 mmHg 85%
    01:00 +9°C° 0 mm 6 mps 732 mmHg 86%
    02:00 +8°C° 0 mm 6 mps 732 mmHg 87%
    03:00 +8°C° 0 mm 5 mps 732 mmHg 89%
    04:00 +8°C° 0 mm 5 mps 732 mmHg 90%
    05:00 +8°C° 0 mm 5 mps 732 mmHg 91%
    06:00 +7°C° 0 mm 5 mps 732 mmHg 92%
    07:00 +8°C° 0.1 mm 5 mps 732 mmHg 86%
    08:00 +9°C° 0.1 mm 6 mps 732 mmHg 80%
    09:00 +11°C° 0 mm 7 mps 732 mmHg 71%
    10:00 +11°C° 0.1 mm 7 mps 732 mmHg 66%
    11:00 +12°C° 0.1 mm 8 mps 732 mmHg 60%
    12:00 +12°C° 0.1 mm 8 mps 732 mmHg 54%
    13:00 +12°C° 0.1 mm 8 mps 732 mmHg 53%
    14:00 +13°C° 0.1 mm 8 mps 732 mmHg 53%
    15:00 +14°C° 0 mm 7 mps 732 mmHg 50%
    16:00 +13°C° 0 mm 6 mps 732 mmHg 54%
    17:00 +11°C° 0 mm 6 mps 732 mmHg 59%
    18:00 +10°C° 0 mm 5 mps 732 mmHg 63%
    19:00 +10°C° 0 mm 4 mps 732 mmHg 67%
    20:00 +8°C° 0 mm 4 mps 732 mmHg 70%
    21:00 +7°C° 0 mm 4 mps 733 mmHg 74%
    22:00 +7°C° 0 mm 4 mps 732 mmHg 76%
    23:00 +7°C° 0 mm 3 mps 732 mmHg 77%

    Tomorrow, 18 September, Wednesday

    Time Temperature Precipitation Wind Pressure Humidity
    00:00 +7°C° 0 mm 3 mps 732 mmHg 79%
    01:00 +7°C° 0 mm 3 mps 732 mmHg 80%
    02:00 +7°C° 0 mm 3 mps 732 mmHg 80%
    03:00 +6°C° 0 mm 4 mps 732 mmHg 80%
    04:00 +5°C° 0 mm 3 mps 732 mmHg 81%
    05:00 +5°C° 0 mm 3 mps 732 mmHg 82%
    06:00 +5°C° 0 mm 3 mps 731 mmHg 83%
    07:00 +7°C° 0 mm 3 mps 731 mmHg 78%
    08:00 +7°C° 0 mm 4 mps 731 mmHg 74%
    09:00 +10°C° 0 mm 4 mps 731 mmHg 69%
    10:00 +8°C° 0.7 mm 5 mps 730 mmHg 75%
    11:00 +8°C° 0.7 mm 5 mps 730 mmHg 81%
    12:00 +7°C° 0.7 mm 5 mps 729 mmHg 86%
    13:00 +8°C° 0.4 mm 4 mps 729 mmHg 85%
    14:00 +9°C° 0.4 mm 3 mps 728 mmHg 84%
    15:00 +10°C° 0.4 mm 3 mps 728 mmHg 83%
    16:00 +9°C° 0.2 mm 2 mps 728 mmHg 83%
    17:00 +10°C° 0.2 mm 1 mps 727 mmHg 84%
    18:00 +10°C° 0.2 mm 1 mps 727 mmHg 84%
    19:00 +8°C° 0.1 mm 2 mps 727 mmHg 87%
    20:00 +7°C° 0.1 mm 3 mps 727 mmHg 91%
    21:00 +6°C° 0.1 mm 4 mps 727 mmHg 94%
    22:00 +6°C° 0.1 mm 4 mps 728 mmHg 92%
    23:00 +6°C° 0.1 mm 5 mps 729 mmHg 91%

    Day after tomorrow, 19 September, Thursday

    Time Temperature Precipitation Wind Pressure Humidity
    00:00 +5°C° 0.1 mm 6 mps 729 mmHg 89%
    01:00 +6°C° 0.1 mm 5 mps 730 mmHg 91%
    02:00 +5°C° 0.1 mm 5 mps 731 mmHg 92%
    03:00 +3°C° 0.1 mm 5 mps 732 mmHg 94%
    04:00 +3°C° 0 mm 5 mps 732 mmHg 94%
    05:00 +3°C° 0 mm 5 mps 733 mmHg 95%
    06:00 +3°C° 0 mm 5 mps 734 mmHg 95%
    07:00 +5°C° 0 mm 5 mps 734 mmHg 93%
    08:00 +5°C° 0 mm 5 mps 735 mmHg 92%
    09:00 +5°C° 0 mm 6 mps 736 mmHg 90%
    10:00 +6°C° 0 mm 5 mps 737 mmHg 89%
    11:00 +6°C° 0 mm 5 mps 737 mmHg 87%
    12:00 +6°C° 0 mm 4 mps 738 mmHg 86%
    13:00 +7°C° 0 mm 4 mps 738 mmHg 82%
    14:00 +8°C° 0 mm 4 mps 738 mmHg 79%
    15:00 +8°C° 0 mm 4 mps 739 mmHg 75%
    16:00 +8°C° 0.1 mm 4 mps 739 mmHg 77%
    17:00 +7°C° 0.1 mm 4 mps 739 mmHg 78%
    18:00 +7°C° 0.1 mm 4 mps 739 mmHg 80%
    19:00 +6°C° 0 mm 4 mps 740 mmHg 83%
    20:00 +5°C° 0 mm 4 mps 740 mmHg 86%
    21:00 +4°C° 0 mm 4 mps 740 mmHg 89%
    22:00 +4°C° 0 mm 3 mps 740 mmHg 89%
    23:00 +4°C° 0 mm 3 mps 740 mmHg 89%

    20 September, Friday

    Time Temperature Precipitation Wind Pressure Humidity
    00:00 +4°C° 0 mm 3 mps 740 mmHg 90%
    01:00 +3°C° 0 mm 3 mps 740 mmHg 91%
    02:00 +3°C° 0 mm 3 mps 740 mmHg 93%
    03:00 +3°C° 0 mm 2 mps 740 mmHg 94%
    04:00 +3°C° 0 mm 2 mps 740 mmHg 95%
    05:00 +3°C° 0 mm 2 mps 740 mmHg 95%
    06:00 +3°C° 0 mm 2 mps 740 mmHg 95%
    07:00 +4°C° 0 mm 2 mps 740 mmHg 90%
    08:00 +6°C° 0 mm 1 mps 741 mmHg 86%
    09:00 +7°C° 0 mm 1 mps 741 mmHg 82%
    10:00 +8°C° 0 mm 1 mps 741 mmHg 76%
    11:00 +9°C° 0 mm 1 mps 741 mmHg 70%
    12:00 +9°C° 0 mm 1 mps 741 mmHg 64%
    13:00 +10°C° 0 mm 1 mps 741 mmHg 61%
    14:00 +10°C° 0 mm 1 mps 741 mmHg 58%
    15:00 +9°C° 0 mm 2 mps 741 mmHg 56%
    16:00 +8°C° 0 mm 2 mps 741 mmHg 59%
    17:00 +8°C° 0 mm 2 mps 741 mmHg 62%
    18:00 +7°C° 0 mm 2 mps 741 mmHg 65%
    19:00 +6°C° 0 mm 2 mps 741 mmHg 66%
    20:00 +6°C° 0 mm 2 mps 741 mmHg 67%
    21:00 +5°C° 0 mm 2 mps 741 mmHg 69%
    22:00 +4°C° 0 mm 2 mps 742 mmHg 70%
    23:00 +4°C° 0 mm 2 mps 742 mmHg 71%

    21 September, Saturday

    Time Temperature Precipitation Wind Pressure Humidity
    00:00 +5°C° 0 mm 1 mps 742 mmHg 72%
    01:00 +4°C° 0 mm 1 mps 742 mmHg 74%
    02:00 +4°C° 0 mm 1 mps 742 mmHg 75%
    03:00 +4°C° 0 mm 1 mps 742 mmHg 77%
    04:00 +2°C° 0 mm 2 mps 742 mmHg 78%
    05:00 +2°C° 0 mm 2 mps 743 mmHg 79%
    06:00 +2°C° 0 mm 2 mps 743 mmHg 80%
    07:00 +3°C° 0 mm 2 mps 743 mmHg 76%
    08:00 +3°C° 0 mm 3 mps 743 mmHg 72%
    09:00 +5°C° 0 mm 3 mps 744 mmHg 68%
    10:00 +7°C° 0 mm 3 mps 744 mmHg 65%
    11:00 +8°C° 0 mm 3 mps 744 mmHg 62%
    12:00 +8°C° 0 mm 4 mps 744 mmHg 59%
    13:00 +8°C° 0 mm 4 mps 744 mmHg 57%
    14:00 +8°C° 0 mm 4 mps 744 mmHg 54%
    15:00 +9°C° 0 mm 3 mps 744 mmHg 52%
    16:00 +9°C° 0 mm 3 mps 744 mmHg 56%
    17:00 +8°C° 0 mm 2 mps 744 mmHg 60%
    18:00 +7°C° 0 mm 2 mps 744 mmHg 64%
    19:00 +6°C° 0 mm 2 mps 744 mmHg 66%
    20:00 +5°C° 0 mm 2 mps 744 mmHg 68%
    21:00 +5°C° 0 mm 2 mps 744 mmHg 70%
    22:00 +4°C° 0 mm 2 mps 743 mmHg 74%
    23:00 +3°C° 0 mm 3 mps 743 mmHg 77%

    22 September, Sunday

    Time Temperature Precipitation Wind Pressure Humidity
    00:00 +3°C° 0 mm 3 mps 743 mmHg 80%
    01:00 +3°C° 0 mm 4 mps 742 mmHg 77%
    02:00 +3°C° 0 mm 5 mps 741 mmHg 74%
    03:00 +3°C° 0 mm 6 mps 740 mmHg 71%
    04:00 +3°C° 0.2 mm 7 mps 739 mmHg 76%
    05:00 +2°C° 0.2 mm 8 mps 738 mmHg 82%
    06:00 +2°C° 0.2 mm 9 mps 737 mmHg 87%
    07:00 +3°C° 0.8 mm 9 mps 736 mmHg 88%
    08:00 +5°C° 0.8 mm 9 mps 735 mmHg 90%
    09:00 +5°C° 0.8 mm 9 mps 734 mmHg 92%
    10:00 +7°C° 0.5 mm 9 mps 734 mmHg 89%
    11:00 +8°C° 0.5 mm 9 mps 734 mmHg 87%
    12:00 +10°C° 0.5 mm 9 mps 733 mmHg 84%
    13:00 +9°C° 0.1 mm 10 mps 734 mmHg 72%
    14:00 +9°C° 0.1 mm 10 mps 734 mmHg 60%
    15:00 +9°C° 0.1 mm 11 mps 734 mmHg 47%
    16:00 +8°C° 0 mm 10 mps 735 mmHg 49%
    17:00 +7°C° 0 mm 9 mps 735 mmHg 51%
    18:00 +6°C° 0 mm 8 mps 736 mmHg 52%
    19:00 +5°C° 0 mm 8 mps 736 mmHg 53%
    20:00 +4°C° 0 mm 8 mps 737 mmHg 54%
    21:00 +4°C° 0 mm 8 mps 737 mmHg 55%
    22:00 +2°C° 0 mm 8 mps 737 mmHg 58%
    23:00 +2°C° 0 mm 8 mps 738 mmHg 61%
    Show more